Time,TemperatureF,DewpointF,PressureIn,WindDirection,WindDirectionDegrees,WindSpeedMPH,WindSpeedGustMPH,Humidity,HourlyPrecipIn,Conditions,Clouds,dailyrainin,SoftwareType,DateUTC
2013-01-30 00:03:00,39.7,39.0,30.00,ESE,118,2.0,7.0,96,0.00,,,0.24,weatherlink.com 1.10,2013-01-30 05:03:00,
2013-01-30 00:18:00,39.6,39.0,30.00,ESE,105,3.0,8.0,96,0.00,,,0.24,weatherlink.com 1.10,2013-01-30 05:18:00,
2013-01-30 00:33:00,39.7,39.0,29.99,SE,146,2.0,6.0,96,0.00,,,0.24,weatherlink.com 1.10,2013-01-30 05:33:00,
2013-01-30 00:48:00,39.5,39.0,29.98,ESE,107,3.0,4.0,96,0.00,,,0.24,weatherlink.com 1.10,2013-01-30 05:48:00,
2013-01-30 01:04:00,39.2,38.0,29.97,SE,126,4.0,8.0,95,0.00,,,0.24,weatherlink.com 1.10,2013-01-30 06:04:00,
2013-01-30 01:19:00,39.2,38.0,29.96,South,183,1.0,4.0,95,0.00,,,0.24,weatherlink.com 1.10,2013-01-30 06:19:00,
2013-01-30 01:34:00,39.1,38.0,29.95,SSE,147,0.0,4.0,96,0.00,,,0.24,weatherlink.com 1.10,2013-01-30 06:34:00,
2013-01-30 01:49:00,39.9,39.0,29.95,SW,230,0.0,6.0,96,0.00,,,0.24,weatherlink.com 1.10,2013-01-30 06:49:00,
2013-01-30 02:04:00,40.3,39.0,29.94,SE,140,3.0,9.0,96,0.00,,,0.24,weatherlink.com 1.10,2013-01-30 07:04:00,
2013-01-30 02:19:00,40.2,39.0,29.93,WSW,244,2.0,5.0,96,0.00,,,0.24,weatherlink.com 1.10,2013-01-30 07:19:00,
2013-01-30 02:34:00,40.7,40.0,29.92,SSE,164,3.0,6.0,96,0.00,,,0.24,weatherlink.com 1.10,2013-01-30 07:34:00,
2013-01-30 02:49:00,41.1,40.0,29.91,SE,145,7.0,8.0,96,0.00,,,0.24,weatherlink.com 1.10,2013-01-30 07:49:00,
2013-01-30 03:04:00,41.2,40.0,29.91,WSW,257,1.0,9.0,96,0.00,,,0.24,weatherlink.com 1.10,2013-01-30 08:04:00,
2013-01-30 03:20:00,41.1,40.0,29.90,SE,124,1.0,10.0,96,0.00,,,0.24,weatherlink.com 1.10,2013-01-30 08:20:00,
2013-01-30 03:36:00,40.5,40.0,29.89,West,269,0.0,5.0,96,0.00,,,0.24,weatherlink.com 1.10,2013-01-30 08:36:00,
2013-01-30 03:50:00,40.1,39.0,29.87,SW,222,1.0,6.0,96,0.00,,,0.24,weatherlink.com 1.10,2013-01-30 08:50:00,
2013-01-30 04:05:00,40.5,40.0,29.87,SSW,208,2.0,8.0,96,0.00,,,0.24,weatherlink.com 1.10,2013-01-30 09:05:00,
2013-01-30 04:20:00,40.7,40.0,29.86,SW,231,0.0,8.0,96,0.00,,,0.24,weatherlink.com 1.10,2013-01-30 09:20:00,
2013-01-30 04:35:00,40.7,40.0,29.85,SSE,161,0.0,6.0,96,0.00,,,0.24,weatherlink.com 1.10,2013-01-30 09:35:00,
2013-01-30 04:51:00,40.7,40.0,29.86,SE,143,2.0,4.0,96,0.00,,,0.24,weatherlink.com 1.10,2013-01-30 09:51:00,
2013-01-30 05:05:00,42.1,41.0,29.85,East,92,6.0,8.0,96,0.00,,,0.24,weatherlink.com 1.10,2013-01-30 10:05:00,
2013-01-30 05:20:00,41.9,41.0,29.84,SSE,167,2.0,6.0,96,0.00,,,0.00,weatherlink.com 1.10,2013-01-30 10:20:00,
2013-01-30 05:36:00,42.3,41.0,29.84,SSE,152,0.0,9.0,96,0.00,,,0.00,weatherlink.com 1.10,2013-01-30 10:36:00,
2013-01-30 05:51:00,42.7,42.0,29.83,SE,125,3.0,5.0,96,0.00,,,0.00,weatherlink.com 1.10,2013-01-30 10:51:00,
2013-01-30 06:06:00,42.7,42.0,29.81,ESE,121,5.0,8.0,96,0.00,,,0.00,weatherlink.com 1.10,2013-01-30 11:06:00,
2013-01-30 06:21:00,43.8,43.0,29.81,ESE,103,5.0,5.0,96,0.00,,,0.00,weatherlink.com 1.10,2013-01-30 11:21:00,
2013-01-30 06:36:00,43.8,43.0,29.80,South,190,3.0,8.0,96,0.00,,,0.00,weatherlink.com 1.10,2013-01-30 11:36:00,
2013-01-30 07:00:00,44.1,43.0,29.79,South,180,0.0,8.0,96,0.00,,,0.00,weatherlink.com 1.10,2013-01-30 12:00:00,
2013-01-30 07:06:00,44.5,44.0,29.79,South,172,1.0,9.0,96,0.00,,,0.00,weatherlink.com 1.10,2013-01-30 12:06:00,
2013-01-30 07:22:00,45.0,44.0,29.78,SE,143,3.0,16.0,96,0.00,,,0.00,weatherlink.com 1.10,2013-01-30 12:22:00,
2013-01-30 07:38:00,45.6,45.0,29.79,SE,143,3.0,14.0,96,0.00,,,0.00,weatherlink.com 1.10,2013-01-30 12:38:00,
2013-01-30 07:52:00,45.1,44.0,29.78,ESE,103,4.0,12.0,96,0.00,,,0.00,weatherlink.com 1.10,2013-01-30 12:52:00,
2013-01-30 08:07:00,45.3,44.0,29.77,ESE,105,8.0,15.0,96,0.00,,,0.00,weatherlink.com 1.10,2013-01-30 13:07:00,
2013-01-30 08:22:00,45.2,44.0,29.77,West,277,2.0,14.0,96,0.00,,,0.00,weatherlink.com 1.10,2013-01-30 13:22:00,
2013-01-30 08:37:00,45.6,45.0,29.76,East,89,8.0,15.0,96,0.00,,,0.00,weatherlink.com 1.10,2013-01-30 13:37:00,
2013-01-30 08:52:00,45.9,45.0,29.74,ESE,109,5.0,12.0,96,0.00,,,0.00,weatherlink.com 1.10,2013-01-30 13:52:00,
2013-01-30 09:07:00,46.4,45.0,29.73,SE,146,3.0,14.0,96,0.00,,,0.00,weatherlink.com 1.10,2013-01-30 14:07:00,
2013-01-30 09:24:00,46.6,46.0,29.73,SSE,163,3.0,12.0,96,0.00,,,0.00,weatherlink.com 1.10,2013-01-30 14:24:00,
2013-01-30 09:38:00,46.7,46.0,29.72,ESE,107,2.0,12.0,96,0.00,,,0.00,weatherlink.com 1.10,2013-01-30 14:38:00,
2013-01-30 09:53:00,47.6,47.0,29.71,East,87,6.0,15.0,96,0.00,,,0.00,weatherlink.com 1.10,2013-01-30 14:53:00,
2013-01-30 10:09:00,48.6,48.0,29.70,ESE,111,4.0,15.0,96,0.00,,,0.00,weatherlink.com 1.10,2013-01-30 15:09:00,
2013-01-30 10:23:00,48.9,48.0,29.69,SW,222,0.0,10.0,95,0.00,,,0.00,weatherlink.com 1.10,2013-01-30 15:23:00,
2013-01-30 10:38:00,49.0,48.0,29.69,SE,144,5.0,12.0,95,0.00,,,0.00,weatherlink.com 1.10,2013-01-30 15:38:00,
2013-01-30 10:53:00,48.8,48.0,29.68,SE,128,3.0,14.0,95,0.00,,,0.00,weatherlink.com 1.10,2013-01-30 15:53:00,
2013-01-30 11:08:00,48.4,47.0,29.68,ESE,121,5.0,14.0,95,0.00,,,0.00,weatherlink.com 1.10,2013-01-30 16:08:00,
2013-01-30 11:24:00,48.6,47.0,29.66,SE,138,2.0,8.0,95,0.00,,,0.00,weatherlink.com 1.10,2013-01-30 16:24:00,
2013-01-30 11:39:00,48.6,48.0,29.64,SE,135,1.0,9.0,96,0.00,,,0.00,weatherlink.com 1.10,2013-01-30 16:39:00,
2013-01-30 11:54:00,49.0,48.0,29.64,ESE,115,9.0,11.0,96,0.00,,,0.00,weatherlink.com 1.10,2013-01-30 16:54:00,
2013-01-30 12:09:00,48.9,48.0,29.62,WNW,299,1.0,14.0,96,0.00,,,0.00,weatherlink.com 1.10,2013-01-30 17:09:00,
2013-01-30 12:24:00,49.7,49.0,29.61,East,82,7.0,18.0,96,0.00,,,0.00,weatherlink.com 1.10,2013-01-30 17:24:00,
2013-01-30 12:39:00,49.9,49.0,29.61,SSE,163,3.0,14.0,96,0.00,,,0.00,weatherlink.com 1.10,2013-01-30 17:39:00,
2013-01-30 12:54:00,50.0,49.0,29.59,SE,138,5.0,17.0,96,0.00,,,0.00,weatherlink.com 1.10,2013-01-30 17:54:00,
2013-01-30 13:09:00,50.3,49.0,29.57,SE,143,12.0,16.0,96,0.00,,,0.00,weatherlink.com 1.10,2013-01-30 18:09:00,
2013-01-30 13:24:00,50.7,50.0,29.55,ESE,121,10.0,15.0,96,0.00,,,0.00,weatherlink.com 1.10,2013-01-30 18:24:00,
2013-01-30 13:40:00,50.8,50.0,29.55,East,81,7.0,10.0,96,0.00,,,0.00,weatherlink.com 1.10,2013-01-30 18:40:00,
2013-01-30 13:55:00,51.0,50.0,29.55,ESE,106,13.0,16.0,96,0.00,,,0.00,weatherlink.com 1.10,2013-01-30 18:55:00,
2013-01-30 14:11:00,51.2,50.0,29.55,SSE,151,0.0,13.0,96,0.00,,,0.00,weatherlink.com 1.10,2013-01-30 19:11:00,
2013-01-30 14:25:00,51.1,50.0,29.54,East,92,9.0,12.0,96,0.00,,,0.00,weatherlink.com 1.10,2013-01-30 19:25:00,
2013-01-30 14:40:00,51.2,50.0,29.54,ESE,117,2.0,9.0,96,0.00,,,0.00,weatherlink.com 1.10,2013-01-30 19:40:00,
2013-01-30 14:56:00,51.5,50.0,29.52,East,96,6.0,14.0,96,0.01,,,0.01,weatherlink.com 1.10,2013-01-30 19:56:00,
2013-01-30 15:10:00,51.5,50.0,29.53,ESE,123,5.0,8.0,96,0.01,,,0.01,weatherlink.com 1.10,2013-01-30 20:10:00,
2013-01-30 15:25:00,51.5,50.0,29.53,SE,127,3.0,14.0,96,0.02,,,0.02,weatherlink.com 1.10,2013-01-30 20:25:00,
2013-01-30 15:40:00,51.8,51.0,29.53,East,91,1.0,10.0,96,0.03,,,0.03,weatherlink.com 1.10,2013-01-30 20:40:00,
2013-01-30 15:56:00,51.9,51.0,29.53,NNE,30,4.0,7.0,96,0.06,,,0.07,weatherlink.com 1.10,2013-01-30 20:56:00,
2013-01-30 16:11:00,52.5,51.0,29.54,SSE,166,2.0,12.0,96,0.11,,,0.12,weatherlink.com 1.10,2013-01-30 21:11:00,
2013-01-30 16:26:00,52.2,51.0,29.53,NNW,333,2.0,11.0,96,0.11,,,0.13,weatherlink.com 1.10,2013-01-30 21:26:00,
2013-01-30 16:41:00,51.9,51.0,29.53,East,84,5.0,6.0,95,0.09,,,0.13,weatherlink.com 1.10,2013-01-30 21:41:00,
2013-01-30 16:56:00,51.6,50.0,29.53,SW,236,2.0,7.0,95,0.07,,,0.14,weatherlink.com 1.10,2013-01-30 21:56:00,
2013-01-30 17:11:00,50.3,49.0,29.52,SW,236,0.0,2.0,94,0.02,,,0.14,weatherlink.com 1.10,2013-01-30 22:11:00,
2013-01-30 17:26:00,48.5,47.0,29.51,WSW,250,0.0,3.0,93,0.01,,,0.14,weatherlink.com 1.10,2013-01-30 22:26:00,
2013-01-30 17:41:00,48.4,47.0,29.52,WSW,246,2.0,3.0,96,0.01,,,0.14,weatherlink.com 1.10,2013-01-30 22:41:00,
2013-01-30 17:56:00,48.5,48.0,29.52,WSW,246,0.0,3.0,96,0.00,,,0.14,weatherlink.com 1.10,2013-01-30 22:56:00,
2013-01-30 18:11:00,47.6,46.0,29.52,WSW,246,0.0,2.0,95,0.01,,,0.15,weatherlink.com 1.10,2013-01-30 23:11:00,
2013-01-30 18:26:00,47.7,47.0,29.51,WNW,290,2.0,3.0,96,0.01,,,0.15,weatherlink.com 1.10,2013-01-30 23:26:00,
2013-01-30 18:43:00,46.9,46.0,29.50,WNW,290,1.0,1.0,96,0.01,,,0.15,weatherlink.com 1.10,2013-01-30 23:43:00,
2013-01-30 18:57:00,45.9,45.0,29.50,WNW,290,1.0,2.0,96,0.01,,,0.15,weatherlink.com 1.10,2013-01-30 23:57:00,
2013-01-30 19:12:00,45.2,44.0,29.50,WNW,290,0.0,2.0,95,0.00,,,0.15,weatherlink.com 1.10,2013-01-31 00:12:00,
2013-01-30 19:27:00,46.2,45.0,29.50,WNW,290,2.0,5.0,96,0.01,,,0.16,weatherlink.com 1.10,2013-01-31 00:27:00,
2013-01-30 19:42:00,47.4,46.0,29.51,WNW,290,3.0,3.0,96,0.02,,,0.17,weatherlink.com 1.10,2013-01-31 00:42:00,
2013-01-30 19:57:00,49.4,49.0,29.49,SE,130,1.0,4.0,97,0.02,,,0.17,weatherlink.com 1.10,2013-01-31 00:57:00,
2013-01-30 20:13:00,49.6,49.0,29.47,SSE,159,0.0,4.0,97,0.03,,,0.18,weatherlink.com 1.10,2013-01-31 01:13:00,
2013-01-30 20:27:00,50.4,50.0,29.47,SE,146,1.0,10.0,97,0.02,,,0.18,weatherlink.com 1.10,2013-01-31 01:27:00,
2013-01-30 20:42:00,50.2,49.0,29.46,ESE,105,0.0,4.0,97,0.02,,,0.19,weatherlink.com 1.10,2013-01-31 01:42:00,
2013-01-30 20:57:00,50.8,50.0,29.45,SSE,151,2.0,9.0,97,0.03,,,0.20,weatherlink.com 1.10,2013-01-31 01:57:00,
2013-01-30 21:13:00,49.8,49.0,29.44,SSE,161,2.0,5.0,97,0.02,,,0.20,weatherlink.com 1.10,2013-01-31 02:13:00,
2013-01-30 21:28:00,49.6,49.0,29.42,SE,136,1.0,5.0,97,0.02,,,0.20,weatherlink.com 1.10,2013-01-31 02:28:00,
2013-01-30 21:43:00,49.9,49.0,29.41,ESE,123,0.0,6.0,96,0.02,,,0.21,weatherlink.com 1.10,2013-01-31 02:43:00,
2013-01-30 21:58:00,49.6,49.0,29.40,SE,135,0.0,5.0,97,0.02,,,0.22,weatherlink.com 1.10,2013-01-31 02:58:00,
2013-01-30 22:13:00,49.9,49.0,29.39,SE,143,3.0,7.0,96,0.03,,,0.23,weatherlink.com 1.10,2013-01-31 03:13:00,
2013-01-30 22:28:00,50.0,49.0,29.38,SE,134,1.0,9.0,97,0.05,,,0.25,weatherlink.com 1.10,2013-01-31 03:28:00,
2013-01-30 22:43:00,49.4,48.0,29.36,South,174,1.0,6.0,96,0.04,,,0.25,weatherlink.com 1.10,2013-01-31 03:43:00,
2013-01-30 22:58:00,49.0,48.0,29.35,SSE,165,0.0,7.0,96,0.05,,,0.27,weatherlink.com 1.10,2013-01-31 03:58:00,
2013-01-30 23:14:00,49.0,48.0,29.34,South,180,1.0,8.0,96,0.04,,,0.27,weatherlink.com 1.10,2013-01-31 04:14:00,
2013-01-30 23:30:00,48.4,47.0,29.30,SW,236,0.0,4.0,96,0.03,,,0.28,weatherlink.com 1.10,2013-01-31 04:30:00,
2013-01-30 23:44:00,47.5,47.0,29.29,SW,233,0.0,3.0,96,0.04,,,0.29,weatherlink.com 1.10,2013-01-31 04:44:00,
2013-01-30 23:59:00,47.7,47.0,29.27,SSE,148,0.0,4.0,96,0.02,,,0.29,weatherlink.com 1.10,2013-01-31 04:59:00,